Previsão horária em Abaigar

Hoje, 12 Abril, Segunda-feira

Tempo Temperatura Precipitação Vento Pressão Humidade
00:00 0°C° 0 mm 3 m/s 713 mmHg 85%
01:00 +1°C° 0 mm 2 m/s 713 mmHg 85%
02:00 +1°C° 0 mm 2 m/s 713 mmHg 86%
03:00 -1°C° 0 mm 2 m/s 713 mmHg 86%
04:00 0°C° 0 mm 3 m/s 713 mmHg 85%
05:00 0°C° 0 mm 3 m/s 714 mmHg 85%
06:00 0°C° 0 mm 3 m/s 714 mmHg 84%
07:00 +2°C° 0 mm 3 m/s 714 mmHg 79%
08:00 +3°C° 0 mm 4 m/s 714 mmHg 74%
09:00 +4°C° 0 mm 4 m/s 714 mmHg 69%
10:00 +6°C° 0 mm 4 m/s 714 mmHg 63%
11:00 +7°C° 0 mm 4 m/s 714 mmHg 57%
12:00 +8°C° 0 mm 4 m/s 714 mmHg 50%
13:00 +8°C° 0 mm 4 m/s 714 mmHg 51%
14:00 +10°C° 0 mm 4 m/s 714 mmHg 48%
15:00 +10°C° 0 mm 4 m/s 713 mmHg 46%
16:00 +8°C° 0 mm 4 m/s 714 mmHg 51%
17:00 +8°C° 0 mm 3 m/s 714 mmHg 57%
18:00 +7°C° 0 mm 3 m/s 714 mmHg 63%
19:00 +4°C° 0 mm 3 m/s 714 mmHg 70%
20:00 +4°C° 0 mm 2 m/s 715 mmHg 77%
21:00 +2°C° 0 mm 2 m/s 715 mmHg 85%
22:00 +2°C° 0 mm 2 m/s 715 mmHg 86%
23:00 +1°C° 0 mm 2 m/s 715 mmHg 87%

Amanhã, 13 Abril, Terça-feira

Tempo Temperatura Precipitação Vento Pressão Humidade
00:00 +1°C° 0 mm 2 m/s 715 mmHg 88%
01:00 +1°C° 0 mm 2 m/s 714 mmHg 88%
02:00 +1°C° 0 mm 2 m/s 714 mmHg 88%
03:00 -1°C° 0 mm 2 m/s 714 mmHg 88%
04:00 +1°C° 0 mm 2 m/s 714 mmHg 87%
05:00 +1°C° 0 mm 2 m/s 714 mmHg 85%
06:00 +1°C° 0 mm 2 m/s 714 mmHg 84%
07:00 +3°C° 0 mm 2 m/s 714 mmHg 72%
08:00 +6°C° 0 mm 2 m/s 714 mmHg 60%
09:00 +8°C° 0 mm 2 m/s 714 mmHg 48%
10:00 +10°C° 0 mm 2 m/s 714 mmHg 43%
11:00 +12°C° 0 mm 1 m/s 713 mmHg 38%
12:00 +14°C° 0 mm 1 m/s 713 mmHg 33%
13:00 +15°C° 0 mm 1 m/s 713 mmHg 33%
14:00 +15°C° 0 mm 2 m/s 712 mmHg 33%
15:00 +15°C° 0 mm 2 m/s 712 mmHg 33%
16:00 +14°C° 0 mm 2 m/s 711 mmHg 41%
17:00 +13°C° 0 mm 2 m/s 711 mmHg 49%
18:00 +10°C° 0 mm 2 m/s 711 mmHg 57%
19:00 +9°C° 0 mm 2 m/s 711 mmHg 60%
20:00 +8°C° 0 mm 1 m/s 711 mmHg 64%
21:00 +7°C° 0 mm 1 m/s 711 mmHg 68%
22:00 +6°C° 0 mm 1 m/s 711 mmHg 69%
23:00 +6°C° 0 mm 1 m/s 711 mmHg 70%

Depois de amanhã, 14 Abril, Quarta-feira

Tempo Temperatura Precipitação Vento Pressão Humidade
00:00 +5°C° 0 mm 1 m/s 711 mmHg 71%
01:00 +5°C° 0 mm 1 m/s 711 mmHg 71%
02:00 +5°C° 0 mm 1 m/s 710 mmHg 71%
03:00 +5°C° 0 mm 1 m/s 710 mmHg 70%
04:00 +5°C° 0 mm 1 m/s 710 mmHg 71%
05:00 +5°C° 0 mm 1 m/s 710 mmHg 71%
06:00 +4°C° 0 mm 1 m/s 710 mmHg 71%
07:00 +7°C° 0 mm 1 m/s 710 mmHg 64%
08:00 +9°C° 0 mm 1 m/s 710 mmHg 58%
09:00 +10°C° 0 mm 0 m/s 711 mmHg 51%
10:00 +13°C° 0 mm 1 m/s 710 mmHg 48%
11:00 +14°C° 0 mm 1 m/s 710 mmHg 44%
12:00 +15°C° 0 mm 1 m/s 710 mmHg 41%
13:00 +16°C° 0 mm 1 m/s 709 mmHg 41%
14:00 +16°C° 0 mm 2 m/s 709 mmHg 40%
15:00 +16°C° 0 mm 2 m/s 708 mmHg 40%
16:00 +15°C° 0 mm 2 m/s 708 mmHg 47%
17:00 +14°C° 0 mm 2 m/s 708 mmHg 54%
18:00 +12°C° 0 mm 2 m/s 708 mmHg 61%
19:00 +10°C° 0 mm 2 m/s 708 mmHg 66%
20:00 +8°C° 0 mm 2 m/s 708 mmHg 70%
21:00 +6°C° 0 mm 2 m/s 709 mmHg 75%
22:00 +6°C° 0 mm 2 m/s 709 mmHg 75%
23:00 +5°C° 0 mm 2 m/s 709 mmHg 74%

15 Abril, Quinta-feira

Tempo Temperatura Precipitação Vento Pressão Humidade
00:00 +5°C° 0 mm 2 m/s 709 mmHg 74%
01:00 +5°C° 0 mm 1 m/s 709 mmHg 74%
02:00 +5°C° 0 mm 1 m/s 709 mmHg 74%
03:00 +5°C° 0 mm 1 m/s 709 mmHg 74%
04:00 +5°C° 0 mm 1 m/s 709 mmHg 72%
05:00 +5°C° 0 mm 1 m/s 709 mmHg 71%
06:00 +5°C° 0 mm 1 m/s 709 mmHg 70%
07:00 +7°C° 0 mm 1 m/s 709 mmHg 66%
08:00 +8°C° 0 mm 1 m/s 709 mmHg 62%
09:00 +10°C° 0 mm 1 m/s 709 mmHg 58%
10:00 +11°C° 0 mm 1 m/s 709 mmHg 55%
11:00 +12°C° 0 mm 2 m/s 708 mmHg 52%
12:00 +14°C° 0 mm 2 m/s 708 mmHg 49%
13:00 +14°C° 0 mm 2 m/s 708 mmHg 47%
14:00 +13°C° 0 mm 3 m/s 707 mmHg 45%
15:00 +14°C° 0 mm 3 m/s 707 mmHg 44%
16:00 +12°C° 0 mm 3 m/s 707 mmHg 48%
17:00 +11°C° 0 mm 3 m/s 707 mmHg 53%
18:00 +9°C° 0 mm 3 m/s 707 mmHg 58%
19:00 +8°C° 0 mm 3 m/s 708 mmHg 62%
20:00 +6°C° 0 mm 2 m/s 708 mmHg 67%
21:00 +4°C° 0 mm 2 m/s 708 mmHg 72%
22:00 +4°C° 0 mm 2 m/s 708 mmHg 73%
23:00 +3°C° 0 mm 2 m/s 708 mmHg 74%

16 Abril, Sexta-feira

Tempo Temperatura Precipitação Vento Pressão Humidade
00:00 +3°C° 0 mm 2 m/s 708 mmHg 76%
01:00 +2°C° 0 mm 2 m/s 708 mmHg 77%
02:00 +2°C° 0 mm 2 m/s 708 mmHg 79%
03:00 +2°C° 0 mm 2 m/s 708 mmHg 81%
04:00 +2°C° 0 mm 2 m/s 708 mmHg 82%
05:00 +2°C° 0 mm 2 m/s 708 mmHg 83%
06:00 +2°C° 0 mm 2 m/s 708 mmHg 84%
07:00 +3°C° 0 mm 3 m/s 708 mmHg 73%
08:00 +5°C° 0 mm 4 m/s 708 mmHg 63%
09:00 +7°C° 0 mm 5 m/s 708 mmHg 52%
10:00 +8°C° 0 mm 5 m/s 708 mmHg 49%
11:00 +9°C° 0 mm 6 m/s 708 mmHg 45%
12:00 +9°C° 0 mm 6 m/s 708 mmHg 41%
13:00 +9°C° 0 mm 7 m/s 708 mmHg 42%
14:00 +9°C° 0 mm 7 m/s 708 mmHg 42%
15:00 +7°C° 0 mm 8 m/s 707 mmHg 42%
16:00 +6°C° 0 mm 7 m/s 708 mmHg 49%
17:00 +5°C° 0 mm 6 m/s 708 mmHg 55%
18:00 +4°C° 0 mm 6 m/s 708 mmHg 61%
19:00 +3°C° 0 mm 5 m/s 708 mmHg 66%
20:00 +2°C° 0 mm 5 m/s 708 mmHg 72%
21:00 +1°C° 0 mm 4 m/s 709 mmHg 77%
22:00 +1°C° 0.2 mm 4 m/s 708 mmHg 80%
23:00 0°C° 0.2 mm 4 m/s 708 mmHg 83%

17 Abril, Sábado

Tempo Temperatura Precipitação Vento Pressão Humidade
00:00 +1°C° 0.2 mm 3 m/s 708 mmHg 87%
01:00 +1°C° 0.1 mm 3 m/s 708 mmHg 87%
02:00 +1°C° 0.1 mm 3 m/s 707 mmHg 88%
03:00 +1°C° 0.1 mm 3 m/s 707 mmHg 88%
04:00 +1°C° 0 mm 3 m/s 707 mmHg 89%
05:00 +1°C° 0 mm 3 m/s 707 mmHg 89%
06:00 +1°C° 0 mm 3 m/s 707 mmHg 90%
07:00 +1°C° 0.3 mm 3 m/s 707 mmHg 92%
08:00 +1°C° 0.3 mm 3 m/s 707 mmHg 94%
09:00 +2°C° 0.3 mm 3 m/s 707 mmHg 95%
10:00 +2°C° 0.1 mm 3 m/s 706 mmHg 93%
11:00 +3°C° 0.1 mm 4 m/s 706 mmHg 90%
12:00 +3°C° 0.1 mm 4 m/s 706 mmHg 87%
13:00 +4°C° 0.2 mm 4 m/s 706 mmHg 86%
14:00 +4°C° 0.2 mm 4 m/s 706 mmHg 85%
15:00 +4°C° 0.2 mm 4 m/s 706 mmHg 84%
16:00 +4°C° 0.3 mm 4 m/s 706 mmHg 87%
17:00 +3°C° 0.3 mm 4 m/s 706 mmHg 90%
18:00 +3°C° 0.3 mm 4 m/s 706 mmHg 93%
19:00 +3°C° 0.2 mm 4 m/s 707 mmHg 92%
20:00 +3°C° 0.2 mm 4 m/s 707 mmHg 92%
21:00 +4°C° 0.2 mm 4 m/s 707 mmHg 91%
22:00 +3°C° 0.3 mm 3 m/s 707 mmHg 92%
23:00 +4°C° 0.3 mm 2 m/s 707 mmHg 93%
Mostrar mais